OE1TKS-HM Weather Reports


Display with metric or nautical units.
time (UTC)temp
F
wind
direction
speed
MPH
gust
MPH
rain 1hr
in
rain 24hr
in
rain mn
in
humidity
%
barometer
mb
20260505123010 112 0.0 0.0 0.00 0.00 0.00 50
20260505122506 112 0.0 0.0 0.00 0.00 0.00 50
20260505122002 112 0.0 0.0 0.00 0.00 0.00 50
20260505121459 112 0.0 0.0 0.00 0.00 0.00 50
20260505120955 112 0.0 0.0 0.00 0.00 0.00 50
20260505120451 112 0.0 0.0 0.00 0.00 0.00 50
20260505115947 112 0.0 0.0 0.00 0.00 0.00 50
20260505115443 111 0.0 0.0 0.00 0.00 0.00 50
20260505114940 111 0.0 0.0 0.00 0.00 0.00 50
20260505114435 111 0.0 0.0 0.00 0.00 0.00 51
20260505113932 111 0.0 0.0 0.00 0.00 0.00 51
20260505113428 111 0.0 0.0 0.00 0.00 0.00 51
20260505112924 110 0.0 0.0 0.00 0.00 0.00 51
20260505112421 110 0.0 0.0 0.00 0.00 0.00 52
20260505111917 109 0.0 0.0 0.00 0.00 0.00 52
20260505111414 109 0.0 0.0 0.00 0.00 0.00 52
20260505110909 108 0.0 0.0 0.00 0.00 0.00 52
20260505110507 108 0.0 0.0 0.00 0.00 0.00 52
20260505110405 108 0.0 0.0 0.00 0.00 0.00 52
20260505101831 97 0.0 0.0 0.00 0.00 0.00 56
20260505101328 96 0.0 0.0 0.00 0.00 0.00 56
20260505100823 94 0.0 0.0 0.00 0.00 0.00 57
20260505095816 90 0.0 0.0 0.00 0.00 0.00 58
20260505095312 89 0.0 0.0 0.00 0.00 0.00 58
20260505094808 88 0.0 0.0 0.00 0.00 0.00 57
20260505094304 87 0.0 0.0 0.00 0.00 0.00 57
20260505093800 87 0.0 0.0 0.00 0.00 0.00 56
20260505093257 86 0.0 0.0 0.00 0.00 0.00 56
20260505092753 86 0.0 0.0 0.00 0.00 0.00 55
20260505092249 85 0.0 0.0 0.00 0.00 0.00 55
20260505091745 85 0.0 0.0 0.00 0.00 0.00 55
20260505091242 85 0.0 0.0 0.00 0.00 0.00 55
20260505090234 84 0.0 0.0 0.00 0.00 0.00 57
20260505085730 83 0.0 0.0 0.00 0.00 0.00 57
20260505085226 83 0.0 0.0 0.00 0.00 0.00 55
20260505084723 83 0.0 0.0 0.00 0.00 0.00 53
20260505084219 84 0.0 0.0 0.00 0.00 0.00 54
20260505083715 84 0.0 0.0 0.00 0.00 0.00 54
20260505083211 84 0.0 0.0 0.00 0.00 0.00 54
20260505082708 84 0.0 0.0 0.00 0.00 0.00 54
20260505082203 84 0.0 0.0 0.00 0.00 0.00 54
20260505081700 84 0.0 0.0 0.00 0.00 0.00 54
20260505081156 85 0.0 0.0 0.00 0.00 0.00 54
20260505080148 85 0.0 0.0 0.00 0.00 0.00 54
20260505075644 84 0.0 0.0 0.00 0.00 0.00 54
20260505075141 83 0.0 0.0 0.00 0.00 0.00 54
20260505072118 75 0.0 0.0 0.00 0.00 0.00 58
20260505071615 73 0.0 0.0 0.00 0.00 0.00 54
20260505071122 72 0.0 0.0 0.00 0.00 0.00 51
20260505071116 72 0.0 0.0 0.00 0.00 0.00 51